Denver, CO

3:54 PM MDT on August 16, 2017 (GMT -0600)
Denver International

Weather History for KDEN - February, 2012

Change the Weather History Date:

Monday, February 20, 2012

  Actual Average Record
Temperature  
Mean Temperature 32 °F 33 °F  
Max Temperature 38 °F 47 °F 75 °F (1935)
Min Temperature 26 °F 20 °F -5 °F (1955)
Degree Days  
Heating Degree Days 33 32  
Month to date heating degree days 797 666  
Since 1 July heating degree days 4122 4197  
Cooling Degree Days 0 0  
Month to date cooling degree days 0 0  
Year to date cooling degree days 0 0  
Moisture  
Dew Point 17 °F    
Average Humidity 60    
Maximum Humidity 92    
Minimum Humidity 27    
Precipitation  
Precipitation 0.01 in 0.01 in 0.47 in (1971)
Month to date precipitation 0.84 0.25  
Year to date precipitation 1.10 0.66  
Snow  
Snow 0.30 in - - ()
Month to date snowfall 18.3  
Since 1 July snowfall 52.7  
Snow Depth 2.00 in    
Sea Level Pressure  
Sea Level Pressure 29.73 in    
Wind  
Wind Speed 19 mph (NW)    
Max Wind Speed 36 mph    
Max Gust Speed 43 mph    
Visibility 7 miles    
Events Snow    
T = Trace of Precipitation, MM = Missing Value Source: NWS Daily Summary

Daily Weather History Graph

Daily Weather History Graph

Search for Another Location

Airport or City:

Trip Planner

Search our weather history database for the weather conditions in past years. The results will help you decide how hot, cold, wet, or windy it might be!

Date:

Astronomy

Feb. 20, 2012 Rise Set
Actual Time 6:45 AM MST 5:40 PM MST
Civil Twilight 6:17 AM MST 6:07 PM MST
Nautical Twilight 5:46 AM MST 6:39 PM MST
Astronomical Twilight 5:15 AM MST 7:10 PM MST
Moon 5:43 AM MST (2/20) 4:47 PM MST (2/20)
Length of Visible Light 11h 49m
Length of Day
10h 54m
Waning Crescent, 1% of the Moon is Illuminated
Feb 20
Waning Crescent
Feb 21
New
Feb 29
First Quarter
Mar 8
Full
Mar 14
Last Quarter

Hourly Weather History & Observations

Time (MST) Temp. Windchill Dew Point Humidity Pressure Visibility Wind Dir Wind Speed Gust Speed Precip Events Conditions
12:44 AM 30.2 °F 18.5 °F 26.6 °F 86% 29.60 in 1.8 mi NW 17.3 mph - 0.00 in Snow Light Snow
12:53 AM 30.0 °F 18.7 °F 27.0 °F 88% 29.59 in 1.0 mi NW 16.1 mph - 0.00 in Snow Light Snow
12:57 AM 30.2 °F 17.8 °F 28.4 °F 93% 29.59 in 1.0 mi NNW 19.6 mph - 0.00 in Snow Light Snow
1:15 AM 30.2 °F 17.4 °F 26.6 °F 86% 29.60 in 0.8 mi NNW 20.7 mph 28.8 mph 0.01 in Snow Light Snow
1:17 AM 30.2 °F 17.1 °F 26.6 °F 86% 29.60 in 0.8 mi NNW 21.9 mph 28.8 mph 0.01 in Snow Light Snow
1:21 AM 30.2 °F 17.4 °F 26.6 °F 86% 29.60 in 0.8 mi NNW 20.7 mph 28.8 mph 0.01 in Snow Light Snow
1:30 AM 28.4 °F 14.7 °F 26.6 °F 93% 29.61 in 1.0 mi NNW 21.9 mph 28.8 mph 0.01 in Snow Light Snow
1:33 AM 28.4 °F 13.5 °F 26.6 °F 93% 29.61 in 1.0 mi NNW 26.5 mph 29.9 mph 0.01 in Snow Light Snow
1:53 AM 28.9 °F 15.4 °F 26.1 °F 89% 29.61 in 1.0 mi North 21.9 mph - 0.01 in Snow Light Snow
2:19 AM 28.4 °F 14.4 °F 24.8 °F 86% 29.60 in 3.0 mi North 23.0 mph 29.9 mph 0.00 in Snow Light Snow
2:36 AM 28.4 °F 15.8 °F 24.8 °F 86% 29.61 in 10.0 mi North 18.4 mph - 0.00 in   Overcast
2:53 AM 27.0 °F 12.8 °F 23.0 °F 85% 29.63 in 10.0 mi North 21.9 mph - 0.00 in   Overcast
3:53 AM 28.0 °F 13.3 °F 18.0 °F 66% 29.64 in 10.0 mi North 25.3 mph 33.4 mph N/A   Overcast
4:53 AM 27.0 °F 11.6 °F 18.0 °F 69% 29.67 in 10.0 mi North 26.5 mph 31.1 mph N/A   Overcast
5:53 AM 26.1 °F 12.3 °F 16.0 °F 66% 29.70 in 10.0 mi North 19.6 mph 28.8 mph N/A   Overcast
6:53 AM 26.1 °F 9.8 °F 14.0 °F 60% 29.73 in 10.0 mi North 28.8 mph 36.8 mph N/A   Overcast
7:53 AM 26.1 °F 9.8 °F 12.9 °F 58% 29.76 in 10.0 mi North 28.8 mph 35.7 mph N/A   Overcast
8:53 AM 27.0 °F 12.5 °F 12.9 °F 56% 29.79 in 10.0 mi North 23.0 mph - N/A   Overcast
9:53 AM 28.9 °F 16.5 °F 14.0 °F 54% 29.83 in 10.0 mi NNW 18.4 mph - N/A   Mostly Cloudy
10:53 AM 32.0 °F 20.5 °F 14.0 °F 48% 29.82 in 10.0 mi NNW 18.4 mph - N/A   Mostly Cloudy
11:53 AM 34.0 °F 24.6 °F 10.0 °F 37% 29.81 in 10.0 mi WNW 13.8 mph - N/A   Scattered Clouds
12:53 PM 35.1 °F 26.9 °F 9.0 °F 34% 29.79 in 10.0 mi NW 11.5 mph - N/A   Scattered Clouds
1:53 PM 37.0 °F 26.7 °F 9.0 °F 31% 29.79 in 10.0 mi WNW 19.6 mph 25.3 mph N/A   Partly Cloudy
2:53 PM 37.9 °F 27.9 °F 7.0 °F 28% 29.79 in 10.0 mi WNW 19.6 mph - N/A   Scattered Clouds
3:53 PM 37.0 °F 27.0 °F 9.0 °F 31% 29.81 in 10.0 mi West 18.4 mph - N/A   Scattered Clouds
4:53 PM 34.0 °F 23.8 °F 10.0 °F 37% 29.84 in 10.0 mi West 16.1 mph - N/A   Mostly Cloudy
5:53 PM 33.1 °F 21.5 °F 8.1 °F 35% 29.85 in 10.0 mi West 19.6 mph 25.3 mph N/A   Mostly Cloudy
6:53 PM 33.1 °F 24.4 °F 8.1 °F 35% 29.86 in 10.0 mi West 11.5 mph - N/A   Mostly Cloudy
7:53 PM 32.0 °F 23.0 °F 10.0 °F 40% 29.88 in 10.0 mi West 11.5 mph - N/A   Mostly Cloudy
8:53 PM 32.0 °F 24.8 °F 10.0 °F 40% 29.88 in 10.0 mi SW 8.1 mph - N/A   Mostly Cloudy
9:53 PM 33.1 °F 21.9 °F 8.1 °F 35% 29.87 in 10.0 mi WSW 18.4 mph - N/A   Mostly Cloudy
10:53 PM 33.1 °F 24.9 °F 7.0 °F 34% 29.86 in 10.0 mi SW 10.4 mph - N/A   Mostly Cloudy
11:53 PM 33.1 °F 20.1 °F 10.0 °F 38% 29.81 in 10.0 mi West 25.3 mph 34.5 mph N/A   Scattered Clouds